Overview Statistics Trail Chart Weather Telemetry Raw packets
 

This is the latest recevied weather packets stored in our database for station/object SP9MUF-14. If no packets are shown the sender has not sent any weather packets the latest 10 day(s).

<< 47 48 49 50 51 52 53 >>
Time Temp. Humidity Pressure Rain* Wind** Luminosity Snow
1787861929 17.78° C 60% 1021.2 hPa 0 mm - 0 W/m² -
1787861626 17.78° C 60% 1021.3 hPa 0 mm - 0 W/m² -
1787861319 16.67° C 63% 1021.3 hPa 0 mm - 0 W/m² -
1787861017 16.67° C 65% 1021.3 hPa 0 mm - 0 W/m² -
1787860715 16.67° C 65% 1021.3 hPa 0 mm - 0 W/m² -
1787860411 16.67° C 64% 1021.2 hPa 0 mm - 0 W/m² -
1787860108 16.67° C 62% 1021.2 hPa 0 mm - 0 W/m² -
1787859806 17.78° C 61% 1021 hPa 0 mm - 0 W/m² -
1787859504 18.89° C 58% 1021.1 hPa 0 mm - 0 W/m² -
1787859202 17.78° C 58% 1021 hPa 0 mm - 0 W/m² -
1787858900 17.78° C 59% 1021.2 hPa 0 mm - 0 W/m² -
1787858596 18.89° C 58% 1021.1 hPa 0 mm - 0 W/m² -
1787858294 17.78° C 58% 1021.2 hPa 0 mm - 0 W/m² -
1787857992 18.89° C 58% 1021.2 hPa 0 mm - 0 W/m² -
1787857690 18.89° C 56% 1021 hPa 0 mm - 0 W/m² -
1787857433 18.89° C 56% 1021.1 hPa 0 mm - 0 W/m² -
1787857387 18.89° C 56% 1021.1 hPa 0 mm - 0 W/m² -
1787857085 20° C 55% 1021 hPa 0 mm - 0 W/m² -
1787856783 20° C 54% 1020.8 hPa 0 mm - 0 W/m² -
1787856481 20° C 55% 1021 hPa 0 mm - 0 W/m² -
1787856178 18.89° C 56% 1021.2 hPa 0 mm - 0 W/m² -
1787854966 18.89° C 55% 1020.9 hPa 0 mm - 0 W/m² -
1787854663 20° C 55% 1020.8 hPa 0 mm - 0 W/m² -
1787854360 20° C 54% 1020.8 hPa 0 mm - 0 W/m² -
1787854054 20° C 53% 1020.8 hPa 0 mm - 0 W/m² -

* Rain latest hour (hover to see other rain measurements)
** Current wind speed in m/s (hover to see current wind gust speed)